SJ-9A

Satellite information

Favourite Embed

Satellite Type and Status

PAYLOADIN ORBIT

Key statistics

Satellite SJ-9A at a glance.

Uptime

4759

Days in orbit

Revolutions

≈ 14.8

Per day

Orbit

SSO

Sun Synchronous Orbit

Inclination

97.6

Latest

Satellite identification and parameters

Extended collection of information and parameters for SJ-9A.

Object identification

Identified? True

Debris? False

Object name: SJ-9A

International designator: 2012-056A

Object number (NORAD): 38860

Object ID (CCSDS): 38860

Country: PEOPLES REPUBLIC OF CHINA (PRC)

Current information (Y/N): Y

RCS size: LARGE

Orbital parameters

Period: 96.983 minutes

Inclination: 97.6425 deg

SMA: 6992.373 km

Apoapsis: 631.574 km

Periapsis: 596.901 km

RAAN: 273.9722 deg

Eccentricy: 0.00247939

Argument of periapsis: 314.4818 deg

Mean anomaly: 45.437 deg

Mean motion: 14.84793044 rev/day

Mean motion (dot): 0.00001724 rev/day2

B* drag term: 0.00020828023 1/REarth

Two-line elements (TLE)

Creation date: Oct. 25, 2025, 3:11 a.m.

Reference frame: TEME

Reference center: EARTH

Epoch: Oct. 24, 2025, 11:02 p.m. UTC

TLE line 0: 0 SJ-9A

TLE line 1: 1 38860U 12056A 25297.95992432 .00001724 00000-0 20828-3 0 9994

TLE line 2: 2 38860 97.6425 273.9722 0024794 314.4818 45.4370 14.84793044664673

Live tracking on map

Real-time ground track for satellite SJ-9A.

In-orbit conjunctions

There are no conjunctions computed for SJ-9A, at the moment. Check back to stay up to date, as we update our databases every day.

Go to all conjunctions

Associated space launch

SJ-9A was lifted into orbit during the mission ‘Long March 2C/SMA | Shijian 9A & Shijian 9B’, on board a Long March 2 space rocket.

The launch took place on Oct. 14, 2012, 3:25 a.m. from Launch Complex 9.

For more information about the launch, click the button.

Launch to space Long March 2C/SMA | Shijian 9A & Shijian 9B
Long March 2C/SMA | Shijian 9A & Shijian 9B

Agency: N/A

Status: Launch Successful

Launch date: Oct. 14, 2012, 3:25 a.m. UTC

Rocket: Long March 2

Launch pad: Launch Complex 9

Location: Taiyuan Satellite Launch Center, People's Republic of China

...

Latest news about this satellite

There are no fresh news available about this satellite. Check back as we update our databases every day.


Newsletter sign-up

Weekly statistics, charts and insights to help you stay on top of the space industry.